COSMOS 249 DEB, 18602

Orbit data source: Space-Track

COSMOS 249 DEB, 18602 is space debris in LEO originally from a launch on Sun, 20 Oct 1968 UTC launched from the Tyuratam Missile And Space Complex (TTMTR). Debris objects in space refer to the collection of defunct objects orbiting the Earth. Examples of debris include non-operational satellites, rocket bodies, and fragments generated from explosions, collisions, or faulty payload assembly.

Loading next visibility...
Identifier
18602, 1968-091DG
Orbit
LEO
Country
Flag of CISCIS
Related business
Manufacturer
Unknown
Mission
Spacecraft
Bus & Motor
Unknown
Mass
Unknown
Launch date (UTC)
1968-10-20 (58 years ago)
Launch vehicle
Unknown
Launch site
Tyuratam Missile And Space Complex (TTMTR)
Object type
Payload
Rocket body
Debris
Shape & HBR
Unknown shape, 0.1 m
Radar Cross Section
Small (<0.1 m²)

Expand to show TLE details & history
Last TLE update: 1 day ago

TLE from 1 day ago
0 COSMOS 249 DEB
1 18602U 68091DG  26125.46934510  .00002105  00000-0  24059-2 0  9999
2 18602  62.2369 293.1558 0625486 244.1545 141.6546 13.09468813639914
Epoch: 2026-05-05T11:15Z
TLE epoch observation values (Epoch: 2026-05-05T11:15:51.416Z)
Latitude
26.30385°
Longitude
-84.14299°
Altitude
1,610.812 km
Speed
6.887 km/s
True Right ascension
20h 32m 39s
True Declination
26° 10' 55"
Sunlit
Object was in daylight at epoch
Visualization orbit readout
Latitude
Unknown
Longitude
Unknown
Altitude
Unknown
Speed
Unknown
Apparent Right ascension
Unknown
Apparent Declination
Unknown
Sunlit
N/A
Visualization observer readout
Local Sidereal Time
20:28:49
Azimuth
Unknown
Elevation
Unknown
Doppler factor
Unknown
Orbital elements
Apogee altitude
1,699.718 km
Perigee altitude
748.687 km
Semi-major axis
7,602.339 km
Eccentricity
0.06255
Inclination
62.2369°
RAAN
293.1558°
Arg. of periapsis
244.1545°
True anomaly
145.84019°
Mean anomaly
141.6546°
Eccentric anomaly
143.77258°
Mean motion
3.27433 °/min
Orbital period
109.95 mins
BSTAR
0.0024059
Loading maneuver chart data...
Computing Atmospheric mass density...

Documentation

Showing up to 5 results
|